Вернуться в каталог

STARLINK-30800

АктивенСвязьVLEO
NORAD 58206·PAYLOAD·🇺🇸 United States

Запущен Nov 3, 2023 с Cape Canaveral Space Force Station

Loading…

Ближайшие Пролёты (ближайшие 24 часа)

TLE

СвежийSource: CelesTrak SupGP

Эпоха: Sep 15, 2026, 01:50 UTC

1 58206C 23170A   26258.07687500 -.00001648  00000+0 -59702-4 0  2585
2 58206  43.0026 205.0521 0001345 258.3072 308.0063 15.27573520    11

Отслеживайте STARLINK-30800 в реальном времени с AllMySat

Download on the App Store